[[{"header":{"parameterUnit":"m.s-1","parameterCategory":1,"la1":30.2991,"la2":30.254,"lo1":-89.0895,"lo2":-89.0444,"dy":0.0017,"dx":0.0017,"nx":28,"ny":28,"refTime":"2024-08-09T15:00:00:Z","depth":0,"parameterNumber":2,"parameterNumberName":"U-component_of_WINDS"},"data":[0,0,0,0,0,0,0,0,0,0,0,0,0,0,0,0,0,0,0,0,0,0,0,0,0,0,0,0,0,0,0,0,0,0,0,0,0,0,0,0,0,0,0,0,0,0,0,0,0,0,0,0,0,0,0,0,0,0,1.204,1.204,0,1.2027,1.2027,1.2027,1.2033,1.2034,1.2034,1.2035,1.2018,1.2018,1.2017,0,0,0,0,0,0,0,0,0,0,0,0,0,1.207,1.2069,1.204,1.204,1.204,1.2027,1.2027,1.2027,1.2033,1.2034,1.2034,1.2035,1.2019,1.2018,1.2017,0,0,0,0,0,0,0,0,0,0,0,0,0,1.2057,1.2069,1.204,1.2042,1.2042,1.2027,1.2027,1.2027,1.2033,1.2034,1.2034,1.2035,1.2019,1.2018,1.2017,1.1999,0,0,1.2013,1.2013,0,0,0,0,0,0,0,0,1.2058,1.2056,1.2042,1.2042,1.2042,1.2032,1.2031,1.2017,1.2033,1.2036,1.2035,1.2035,1.2022,1.2021,1.2017,1.1998,1.1997,1.2013,1.2012,1.2012,1.2011,0,0,0,0,0,0,0,1.2059,1.2056,1.2035,1.2042,1.2041,1.2043,1.2041,1.2029,1.2026,1.2036,1.2037,1.2035,1.2022,1.2018,1.2017,1.1997,1.2013,1.2012,1.2011,1.2011,1.1963,1.1962,0,0,0,0,0,0,1.206,1.2057,1.2035,1.2035,1.2051,1.2042,1.204,1.2035,1.2027,1.2026,1.2035,1.2036,1.202,1.2018,1.2016,1.1994,1.2012,1.2011,1.201,1.1963,1.1962,1.1962,0,0,0,0,0,0,1.206,1.2058,1.2036,1.2046,1.2043,1.2041,1.2034,1.2034,1.203,1.2026,1.2025,1.2031,1.202,1.2018,1.2003,1.1994,1.201,1.2009,1.1964,1.1963,1.1962,1.1951,0,0,0,0,0,0,1.2061,1.2058,1.2051,1.2046,1.2043,1.2023,1.2034,1.2034,1.2028,1.2029,1.2022,1.2021,1.2021,1.2005,1.2002,1.1993,1.2008,1.1965,1.1963,1.1962,1.1952,1.195,1.1948,0,0,0,0,0,1.2062,1.2048,1.2051,1.2048,1.2034,1.2023,1.2021,1.2021,1.2028,1.2021,1.2018,1.2021,1.1996,1.2003,1.2,1.199,1.1965,1.1964,1.1963,1.1953,1.195,1.1948,0,0,0,0,0,0,1.2051,1.2047,1.205,1.2034,1.2029,1.2024,1.2015,1.2018,1.201,1.2011,1.2012,1.201,1.1995,1.1991,1.2,1.1973,1.1981,1.1979,1.1975,1.1972,1.197,1.1971,1.2007,0,0,0,0,0,1.2047,1.2038,1.2035,1.2021,1.2018,1.2017,1.2012,1.2013,1.2007,1.2005,1.2001,1.1995,1.1986,1.1979,1.197,1.1952,1.195,1.1944,1.1942,1.194,1.1938,1.1928,1.1925,1.1957,1.1958,1.1958,0,0,1.2037,1.2034,1.2029,1.2019,1.2015,1.2005,1.2015,1.2005,1.1997,1.2003,1.1989,1.1986,1.1979,1.1963,1.1955,1.1959,1.1929,1.1938,1.1937,1.1936,1.1926,1.1923,1.192,1.1957,1.1957,1.1957,0,0,1.2015,1.2013,1.2,1.1997,1.1991,1.1991,1.1988,1.1983,1.1982,1.1968,1.1973,1.1964,1.1948,1.1943,1.1938,1.1916,1.1919,1.1914,1.1901,1.1892,1.1889,1.1887,1.1878,1.1875,1.1912,1.1912,1.1912,0,1.2004,1.199,1.1994,1.1983,1.1978,1.1985,1.1972,1.1968,1.196,1.1956,1.1962,1.1942,1.1938,1.192,1.1915,1.1912,1.1908,1.1913,1.1889,1.1887,1.1885,1.1876,1.1873,1.1911,1.1911,1.1911,1.1911,0,1.1976,1.1967,1.1958,1.1951,1.1945,1.1934,1.1935,1.1929,1.1931,1.193,1.1916,1.1912,1.1902,1.1899,1.19,1.1882,1.1884,1.189,1.1898,1.1881,1.1873,1.187,1.191,1.191,1.191,1.1911,0,0,1.1944,1.1941,1.1937,1.1934,1.1929,1.1922,1.1911,1.1903,1.1897,1.1892,1.1882,1.187,1.1875,1.187,1.1871,1.1863,1.1845,1.1869,1.1869,1.1864,1.1823,1.1818,1.1814,1.1848,1.1847,1.1847,1.1823,0,1.192,1.1902,1.1905,1.1887,1.1878,1.1885,1.1876,1.1872,1.1871,1.1863,1.1863,1.1853,1.1861,1.1858,1.1851,1.1849,1.1836,1.1851,1.1837,1.1837,1.1837,1.181,1.1804,1.1782,1.182,1.182,1.1819,0,1.189,1.1884,1.1865,1.1863,1.1859,1.1851,1.1844,1.1837,1.1833,1.1833,1.1828,1.1831,1.182,1.1831,1.1815,1.1825,1.182,1.1818,1.1817,1.1814,1.1825,1.1804,1.1775,1.1771,1.1815,1.1815,1.1815,0,1.1866,1.1855,1.1842,1.1839,1.1836,1.183,1.1828,1.1825,1.182,1.1815,1.1811,1.1804,1.1799,1.1794,1.1795,1.1803,1.1779,1.1789,1.1777,1.1777,1.177,1.177,1.1737,1.177,1.177,1.177,1.177,0,1.1838,1.1826,1.1831,1.1823,1.1809,1.1814,1.18,1.18,1.1797,1.1788,1.1795,1.1787,1.179,1.1782,1.1783,1.1769,1.1768,1.1767,1.1767,1.1765,1.1765,1.176,1.1761,1.1769,1.1769,1.177,1.177,0,1.1808,1.1811,1.1798,1.1797,1.1797,1.1787,1.1786,1.1778,1.178,1.1769,1.1766,1.1768,1.1759,1.176,1.175,1.1751,1.1733,1.1736,1.1735,1.1734,1.1722,1.1722,1.1683,1.1678,1.1716,1.1716,1.1715,0,1.1789,1.178,1.1779,1.1774,1.1772,1.1765,1.176,1.1765,1.176,1.1756,1.1749,1.1741,1.1734,1.172,1.1719,1.1711,1.1713,1.17,1.1712,1.171,1.1711,1.171,1.1709,1.1697,1.1696,1.1696,1.1696,0,1.1754,1.1756,1.175,1.1745,1.174,1.1735,1.1732,1.1727,1.1732,1.1726,1.1718,1.1713,1.1704,1.1695,1.1689,1.1687,1.1691,1.1693,1.1689,1.1686,1.1684,1.1683,1.1726,1.1692,1.1693,1.1693,1.1693,1.1693,1.1727,1.1719,1.1718,1.1711,1.1709,1.1706,1.1699,1.17,1.1693,1.1686,1.169,1.168,1.1678,1.1669,1.1667,1.1659,1.1664,1.1659,1.1657,1.1655,1.1653,1.1688,1.1658,1.1658,1.1658,1.1658,1.1658,0,1.169,1.1691,1.1685,1.168,1.1675,1.1682,1.1679,1.1674,1.1665,1.1663,1.1657,1.1648,1.164,1.164,1.1633,1.1627,1.1629,1.1624,1.1624,1.1623,1.165,1.1653,1.1623,1.1623,1.1623,1.1623,1.1623,1.1623,1.1671,1.1658,1.1661,1.1647,1.1648,1.1638,1.1636,1.1633,1.1631,1.1621,1.1615,1.1616,1.1615,1.1608,1.1601,1.1602,1.1598,1.1592,1.1593,1.1618,1.1621,1.1624,1.1627,1.1592,1.1592,1.1566,1.1566,1.1566]},{"header":{"parameterUnit":"m.s-1","parameterCategory":1,"la1":30.2991,"la2":30.254,"lo1":-89.0895,"lo2":-89.0444,"dy":0.0017,"dx":0.0017,"nx":28,"ny":28,"refTime":"2024-08-09T15:00:00:Z","depth":0,"parameterNumber":3,"parameterNumberName":"V-component_of_WINDS"},"data":[0,0,0,0,0,0,0,0,0,0,0,0,0,0,0,0,0,0,0,0,0,0,0,0,0,0,0,0,0,0,0,0,0,0,0,0,0,0,0,0,0,0,0,0,0,0,0,0,0,0,0,0,0,0,0,0,0,0,-3.7298,-3.7299,0,-3.744,-3.7442,-3.7443,-3.742,-3.7417,-3.7415,-3.7413,-3.7557,-3.7563,-3.7569,0,0,0,0,0,0,0,0,0,0,0,0,0,-3.7003,-3.7008,-3.7297,-3.7299,-3.7301,-3.744,-3.7442,-3.7444,-3.742,-3.7417,-3.7414,-3.7411,-3.7555,-3.7562,-3.7569,0,0,0,0,0,0,0,0,0,0,0,0,0,-3.7136,-3.701,-3.7297,-3.7306,-3.7308,-3.7439,-3.7442,-3.7444,-3.7421,-3.7417,-3.7413,-3.741,-3.7552,-3.7561,-3.757,-3.7701,0,0,-3.7598,-3.7602,0,0,0,0,0,0,0,0,-3.7129,-3.7147,-3.7303,-3.7306,-3.7308,-3.7408,-3.7391,-3.753,-3.7422,-3.7378,-3.7412,-3.7408,-3.751,-3.7523,-3.7557,-3.7708,-3.7714,-3.7599,-3.7605,-3.7609,-3.7611,0,0,0,0,0,0,0,-3.712,-3.7141,-3.7354,-3.7305,-3.7309,-3.7302,-3.7317,-3.7417,-3.7463,-3.7382,-3.738,-3.7397,-3.7511,-3.7549,-3.7561,-3.7716,-3.7599,-3.7607,-3.7613,-3.7616,-3.798,-3.7984,0,0,0,0,0,0,-3.7108,-3.7133,-3.7349,-3.7358,-3.7208,-3.731,-3.7327,-3.738,-3.7462,-3.7471,-3.74,-3.7396,-3.7535,-3.755,-3.7566,-3.7724,-3.7609,-3.7617,-3.7623,-3.7976,-3.7981,-3.7986,0,0,0,0,0,0,-3.7102,-3.7127,-3.7343,-3.7245,-3.7272,-3.732,-3.7379,-3.7385,-3.7422,-3.7476,-3.7484,-3.7431,-3.7532,-3.7553,-3.7668,-3.7729,-3.7621,-3.763,-3.7971,-3.7978,-3.7983,-3.8042,0,0,0,0,0,0,-3.7093,-3.7125,-3.7176,-3.7247,-3.7278,-3.7444,-3.7383,-3.739,-3.7439,-3.7434,-3.7507,-3.7515,-3.7531,-3.7654,-3.7677,-3.7739,-3.7637,-3.7966,-3.7974,-3.7981,-3.8034,-3.8049,-3.8061,0,0,0,0,0,-3.7083,-3.7187,-3.7179,-3.7205,-3.7342,-3.7448,-3.7465,-3.7482,-3.7444,-3.7495,-3.7529,-3.7513,-3.7718,-3.7666,-3.7691,-3.7758,-3.7962,-3.7972,-3.7981,-3.8028,-3.8046,-3.8061,0,0,0,0,0,0,-3.7121,-3.7196,-3.7188,-3.7318,-3.7377,-3.7443,-3.7508,-3.75,-3.7571,-3.7563,-3.758,-3.7597,-3.7713,-3.7747,-3.7687,-3.7888,-3.7835,-3.7849,-3.7862,-3.7879,-3.7893,-3.7882,-3.7645,0,0,0,0,0,-3.7145,-3.7225,-3.7285,-3.7394,-3.7424,-3.7461,-3.7508,-3.7515,-3.7577,-3.7601,-3.7644,-3.7703,-3.7781,-3.7832,-3.7907,-3.8039,-3.8054,-3.8097,-3.811,-3.8121,-3.8134,-3.8206,-3.8225,-3.8016,-3.8016,-3.8016,0,0,-3.7195,-3.7245,-3.7295,-3.7403,-3.7449,-3.7531,-3.7482,-3.7571,-3.7631,-3.7614,-3.7726,-3.7759,-3.7826,-3.795,-3.8007,-3.7982,-3.8195,-3.8133,-3.8141,-3.8148,-3.8217,-3.8237,-3.8255,-3.8022,-3.8021,-3.802,0,0,-3.7327,-3.7373,-3.7469,-3.7516,-3.7587,-3.7611,-3.7634,-3.7702,-3.7724,-3.7836,-3.7825,-3.7896,-3.803,-3.8079,-3.8121,-3.8271,-3.8258,-3.8294,-3.8365,-3.8435,-3.8451,-3.8466,-3.8519,-3.8538,-3.8307,-3.8307,-3.8307,0,-3.7379,-3.7503,-3.7519,-3.7609,-3.7656,-3.7645,-3.7741,-3.7786,-3.7878,-3.7911,-3.7881,-3.8049,-3.8093,-3.8228,-3.8265,-3.8299,-3.8325,-3.8286,-3.8448,-3.8463,-3.8477,-3.8528,-3.8548,-3.8311,-3.831,-3.831,-3.8309,0,-3.7563,-3.7649,-3.7717,-3.7807,-3.7862,-3.7954,-3.7984,-3.8038,-3.8041,-3.8067,-3.8181,-3.8234,-3.8319,-3.8352,-3.8355,-3.8487,-3.8469,-3.8444,-3.839,-3.85,-3.8548,-3.8568,-3.8316,-3.8315,-3.8314,-3.8313,0,0,-3.7724,-3.7821,-3.7846,-3.7886,-3.7963,-3.8029,-3.8121,-3.8204,-3.825,-3.8313,-3.839,-3.8503,-3.848,-3.8528,-3.8537,-3.8598,-3.8713,-3.8565,-3.8567,-3.859,-3.8861,-3.888,-3.8902,-3.8705,-3.8709,-3.8712,-3.8855,0,-3.7864,-3.8026,-3.8043,-3.8188,-3.8267,-3.8257,-3.8337,-3.8393,-3.842,-3.849,-3.852,-3.86,-3.8563,-3.8592,-3.8652,-3.8686,-3.8767,-3.8676,-3.8776,-3.8779,-3.876,-3.8928,-3.8948,-3.9081,-3.8874,-3.8878,-3.888,0,-3.8048,-3.8117,-3.8271,-3.8336,-3.837,-3.8441,-3.8519,-3.8587,-3.8649,-3.8664,-3.8718,-3.8718,-3.8812,-3.8755,-3.8883,-3.8821,-3.8863,-3.8885,-3.8891,-3.8901,-3.8836,-3.8942,-3.9124,-3.9144,-3.891,-3.8907,-3.8905,0,-3.815,-3.8281,-3.839,-3.8424,-3.8504,-3.8554,-3.8589,-3.8648,-3.8697,-3.8765,-3.8797,-3.8874,-3.8916,-3.8976,-3.8997,-3.8953,-3.9125,-3.9069,-3.914,-3.9139,-3.9177,-3.9174,-3.9368,-3.9204,-3.9203,-3.9203,-3.9202,0,-3.8304,-3.8398,-3.8437,-3.8503,-3.8608,-3.8626,-3.8729,-3.8762,-3.8814,-3.8886,-3.8882,-3.895,-3.8974,-3.9045,-3.9062,-3.9166,-3.9185,-3.92,-3.9203,-3.92,-3.9199,-3.9228,-3.9219,-3.9208,-3.9207,-3.9206,-3.9205,0,-3.8436,-3.8466,-3.8583,-3.8649,-3.8667,-3.8742,-3.8797,-3.8861,-3.8887,-3.8979,-3.9001,-3.9042,-3.9126,-3.9153,-3.9254,-3.9265,-3.9387,-3.9382,-3.9366,-3.9366,-3.9435,-3.9428,-3.9655,-3.9686,-3.9501,-3.9503,-3.9504,0,-3.8533,-3.8605,-3.8678,-3.8726,-3.8764,-3.8842,-3.8892,-3.8912,-3.8964,-3.904,-3.9095,-3.9178,-3.9246,-3.938,-3.9418,-3.9496,-3.9493,-3.9567,-3.9504,-3.9499,-3.9494,-3.9489,-3.9496,-3.9578,-3.958,-3.9582,-3.9583,0,-3.8701,-3.8711,-3.8784,-3.8862,-3.8922,-3.8984,-3.9044,-3.9083,-3.9112,-3.9171,-3.9257,-3.9309,-3.9413,-3.9495,-3.9574,-3.9609,-3.9601,-3.9603,-3.9623,-3.9621,-3.9609,-3.9616,-3.9398,-3.9597,-3.9596,-3.9595,-3.9594,-3.9594,-3.8818,-3.8881,-3.8943,-3.9024,-3.9071,-3.9127,-3.919,-3.9224,-3.9296,-3.9382,-3.9389,-3.9482,-3.9542,-3.9647,-3.9686,-3.9758,-3.9737,-3.9767,-3.9774,-3.9781,-3.9787,-3.9597,-3.9773,-3.9772,-3.9772,-3.9772,-3.9771,0,-3.8986,-3.9025,-3.9099,-3.9183,-3.9246,-3.9233,-3.9298,-3.9352,-3.9434,-3.9491,-3.9558,-3.9656,-3.9736,-3.978,-3.986,-3.9909,-3.9908,-3.9929,-3.9926,-3.9934,-3.9801,-3.9776,-3.993,-3.9929,-3.9929,-3.9929,-3.9929,-3.9929,-3.9081,-3.9187,-3.9205,-3.9335,-3.9373,-3.9464,-3.9503,-3.9554,-3.9599,-3.971,-3.9776,-3.9805,-3.9856,-3.9939,-4.0012,-4.0023,-4.0052,-4.0077,-4.0085,-3.996,-3.9944,-3.9928,-3.9904,-4.0083,-4.0083,-4.0212,-4.0213,-4.0214]}]]